Princeton, MN

2:18 AM CDT on July 23, 2017 (GMT -0500)
Princeton Municipal

Weather History for KPNM - May, 2014

Change the Weather History Date:

Thursday, May 29, 2014

  Actual Average Record
Temperature  
Mean Temperature 68 °F -  
Max Temperature 84 °F 68 °F 93 °F (2006)
Min Temperature 51 °F 45 °F 42 °F (2000)
Cooling Degree Days 2    
Growing Degree Days 18 (Base 50)    
Moisture  
Dew Point 49 °F    
Average Humidity 52    
Maximum Humidity 88    
Minimum Humidity 26    
Precipitation  
Precipitation 0.00 in - - ()
Sea Level Pressure  
Sea Level Pressure 30.10 in    
Wind  
Wind Speed 0 mph (North)    
Max Wind Speed 0 mph    
Max Gust Speed -    
Visibility 10 miles    
Events      
Averages and records for this station are not official NWS values.
T = Trace of Precipitation, MM = Missing Value Source: NWS Daily Summary

Daily Weather History Graph

Daily Weather History Graph

Search for Another Location

Airport or City:

Trip Planner

Search our weather history database for the weather conditions in past years. The results will help you decide how hot, cold, wet, or windy it might be!

Date:

Astronomy

May. 29, 2014 Rise Set
Actual Time 5:30 AM CDT 8:53 PM CDT
Civil Twilight 4:54 AM CDT 9:30 PM CDT
Nautical Twilight 4:06 AM CDT 10:18 PM CDT
Astronomical Twilight 3:05 AM CDT 11:19 PM CDT
Moon 6:27 AM CDT (5/29) 9:41 PM CDT (5/29)
Length of Visible Light 16h 35m
Length of Day
15h 22m
New Moon, 1% of the Moon is Illuminated
May 29
New Moon
Jun 5
First Quarter
Jun 12
Full
Jun 19
Last Quarter
Jun 27
New

Hourly Weather History & Observations

Time (CDT) Temp. Dew Point Humidity Pressure Visibility Wind Dir Wind Speed Gust Speed Precip Events Conditions
12:15 AM 64.4 °F 51.8 °F 64% 30.10 in 10.0 mi Calm Calm - N/A   Clear
12:34 AM 62.6 °F 51.8 °F 68% 30.10 in 10.0 mi Calm Calm - N/A   Clear
1:15 AM 60.8 °F 51.8 °F 72% 30.10 in 10.0 mi Calm Calm - N/A   Clear
1:34 AM 60.8 °F 51.8 °F 72% 30.10 in 10.0 mi Calm Calm - N/A   Clear
1:54 AM 60.8 °F 48.2 °F 63% 30.10 in 10.0 mi Calm Calm - N/A   Clear
2:14 AM 59.0 °F 48.2 °F 67% 30.10 in 10.0 mi Calm Calm - N/A   Clear
2:34 AM 57.2 °F 48.2 °F 72% 30.09 in 10.0 mi Calm Calm - N/A   Clear
2:55 AM 55.4 °F 48.2 °F 77% 30.10 in 10.0 mi Calm Calm - N/A   Clear
3:14 AM 55.4 °F 48.2 °F 77% 30.11 in 10.0 mi Calm Calm - N/A   Clear
3:34 AM 55.4 °F 48.2 °F 77% 30.11 in 10.0 mi Calm Calm - N/A   Clear
3:55 AM 53.6 °F 48.2 °F 82% 30.11 in 10.0 mi Calm Calm - N/A   Clear
4:14 AM 53.6 °F 48.2 °F 82% 30.11 in 10.0 mi Calm Calm - N/A   Clear
4:34 AM 53.6 °F 48.2 °F 82% 30.12 in 10.0 mi Calm Calm - N/A   Clear
4:55 AM 53.6 °F 48.2 °F 82% 30.12 in 10.0 mi Calm Calm - N/A   Clear
5:14 AM 51.8 °F 48.2 °F 88% 30.13 in 10.0 mi Calm Calm - N/A   Clear
5:34 AM 51.8 °F 46.4 °F 82% 30.14 in 10.0 mi Calm Calm - N/A   Clear
5:55 AM 51.8 °F 46.4 °F 82% 30.14 in 10.0 mi Calm Calm - N/A   Clear
6:14 AM 53.6 °F 48.2 °F 82% 30.13 in 10.0 mi Calm Calm - N/A   Clear
6:34 AM 53.6 °F 48.2 °F 82% 30.13 in 10.0 mi Calm Calm - N/A   Clear
6:54 AM 55.4 °F 48.2 °F 77% 30.13 in 10.0 mi Calm Calm - N/A   Clear
7:14 AM 57.2 °F 50.0 °F 77% 30.13 in 10.0 mi Calm Calm - N/A   Clear
7:34 AM 59.0 °F 50.0 °F 72% 30.14 in 10.0 mi Calm Calm - N/A   Clear
7:54 AM 60.8 °F 51.8 °F 72% 30.13 in 10.0 mi Calm Calm - N/A   Clear
8:54 AM 66.2 °F 53.6 °F 64% 30.13 in 10.0 mi Calm Calm - N/A   Clear
9:14 AM 69.8 °F 53.6 °F 56% 30.14 in 10.0 mi Calm Calm - N/A   Clear
9:34 AM 71.6 °F 53.6 °F 53% 30.13 in 10.0 mi Calm Calm - N/A   Clear
9:54 AM 73.4 °F 53.6 °F 50% 30.13 in 10.0 mi Calm Calm - N/A   Clear
10:14 AM 73.4 °F 51.8 °F 47% 30.13 in 10.0 mi Calm Calm - N/A   Clear
10:34 AM 73.4 °F 51.8 °F 47% 30.13 in 10.0 mi Calm Calm - N/A   Clear
10:54 AM 75.2 °F 51.8 °F 44% 30.13 in 10.0 mi Calm Calm - N/A   Clear
11:14 AM 78.8 °F 51.8 °F 39% 30.13 in 10.0 mi Calm Calm - N/A   Clear
11:34 AM 77.0 °F 46.4 °F 34% 30.13 in 10.0 mi Calm Calm - N/A   Clear
11:54 AM 78.8 °F 48.2 °F 34% 30.12 in 10.0 mi Calm Calm - N/A   Clear
12:14 PM 78.8 °F 48.2 °F 34% 30.12 in 10.0 mi Calm Calm - N/A   Clear
12:35 PM 80.6 °F 48.2 °F 32% 30.12 in 10.0 mi Calm Calm - N/A   Clear
12:54 PM 80.6 °F 48.2 °F 32% 30.12 in 10.0 mi Calm Calm - N/A   Clear
1:14 PM 82.4 °F 48.2 °F 30% 30.12 in 10.0 mi Calm Calm - N/A   Clear
1:34 PM 82.4 °F 48.2 °F 30% 30.12 in 7.0 mi Calm Calm - N/A   Clear
1:54 PM 82.4 °F 44.6 °F 26% 30.11 in 10.0 mi Calm Calm - N/A   Clear
2:14 PM 82.4 °F 46.4 °F 28% 30.10 in 10.0 mi Calm Calm - N/A   Clear
2:34 PM 82.4 °F 46.4 °F 28% 30.10 in 10.0 mi Calm Calm - N/A   Clear
2:54 PM 82.4 °F 46.4 °F 28% 30.10 in 10.0 mi Calm Calm - N/A   Clear
3:14 PM 84.2 °F 46.4 °F 27% 30.09 in 10.0 mi Calm Calm - N/A   Clear
3:34 PM 84.2 °F 48.2 °F 29% 30.09 in 10.0 mi Calm Calm - N/A   Clear
4:14 PM 84.2 °F 48.2 °F 29% 30.08 in 10.0 mi Calm Calm - N/A   Clear
4:34 PM 84.2 °F 48.2 °F 29% 30.07 in 10.0 mi Calm Calm - N/A   Clear
5:14 PM 84.2 °F 46.4 °F 27% 30.06 in 10.0 mi Calm Calm - N/A   Clear
5:34 PM 84.2 °F 48.2 °F 29% 30.06 in 10.0 mi Calm Calm - N/A   Clear
5:54 PM 82.4 °F 48.2 °F 30% 30.06 in 10.0 mi Calm Calm - N/A   Clear
6:14 PM 82.4 °F 46.4 °F 28% 30.06 in 10.0 mi Calm Calm - N/A   Clear
6:34 PM 82.4 °F 46.4 °F 28% 30.05 in 10.0 mi Calm Calm - N/A   Clear
6:55 PM 82.4 °F 48.2 °F 30% 30.05 in 10.0 mi Calm Calm - N/A   Clear
7:14 PM 80.6 °F 48.2 °F 32% 30.05 in 10.0 mi Calm Calm - N/A   Clear
7:34 PM 80.6 °F 48.2 °F 32% 30.05 in 10.0 mi Calm Calm - N/A   Clear
7:55 PM 80.6 °F 48.2 °F 32% 30.06 in 10.0 mi Calm Calm - N/A   Clear
8:14 PM 78.8 °F 48.2 °F 34% 30.06 in 10.0 mi Calm Calm - N/A   Clear
8:34 PM 77.0 °F 48.2 °F 36% 30.06 in 10.0 mi Calm Calm - N/A   Clear
8:55 PM 75.2 °F 50.0 °F 41% 30.07 in 10.0 mi Calm Calm - N/A   Clear
9:14 PM 73.4 °F 50.0 °F 44% 30.07 in 10.0 mi Calm Calm - N/A   Clear
9:34 PM 73.4 °F 51.8 °F 47% 30.06 in 10.0 mi Calm Calm - N/A   Clear
9:55 PM 71.6 °F 51.8 °F 50% 30.07 in 10.0 mi Calm Calm - N/A   Clear
10:14 PM 71.6 °F 51.8 °F 50% 30.07 in 10.0 mi Calm Calm - N/A   Clear
10:34 PM 71.6 °F 51.8 °F 50% 30.07 in 10.0 mi Calm Calm - N/A   Clear
10:55 PM 69.8 °F 51.8 °F 53% 30.08 in 10.0 mi Calm Calm - N/A   Clear
11:14 PM 69.8 °F 51.8 °F 53% 30.08 in 10.0 mi Calm Calm - N/A   Clear
11:34 PM 64.4 °F 51.8 °F 64% 30.08 in 10.0 mi Calm Calm - N/A   Clear
11:55 PM 64.4 °F 53.6 °F 68% 30.08 in 10.0 mi Calm Calm - N/A   Clear